STARLINK-1272, 45386

Orbit data source: Space-Track

STARLINK-1272, 45386 is a payload satellite owned by SpaceX/Seattle (US) in LEO that was launched on Wed, 18 Mar 2020 UTC via an FALCON 9 launch vehicle from the Air Force Eastern Test Range (AFETR). Payload-class satellites include a variety of spacecraft equipped with specific instruments for various scientific and technological missions. These include communications satellites like Starlink; space stations such as the ISS; scientific satellites like the Hubble; Earth observation satellites from companies like Planet Labs, Umbra, and HawkEye 360; GPS; miniature CubeSats for education and research; and military/defense satellites.

Loading next visibility...
Identifier
45386, 2020-019AC
Orbit
LEO
Country
Flag of USUS
Related business
Manufacturer
SpaceX/Seattle
Mission
Partially operational Commercial Communications
Bus & Motor
STARLINK, Unknown motor
Mass
260 kg wet, ~248 kg dry
Launch date (UTC)
2020-03-18 (6 years ago)
Launch vehicle
FALCON 9
Launch site
Air Force Eastern Test Range (AFETR)
Object type
Payload
Rocket body
Debris
Shape & HBR
Box + 1 Pan, 10.1 m
Radar Cross Section
13.562 m², Large (>1 m²)

Expand to show TLE details & history
Last TLE update: 11 hours ago

TLE from 11 hours ago
0 STARLINK-1272
1 45386U 20019AC  26125.56309992  .00049003  00000-0  46749-3 0  9996
2 45386  53.0400 192.0321 0007875 346.1635  13.9163 15.66264425339417
Epoch: 2026-05-05T13:30Z
TLE epoch observation values (Epoch: 2026-05-05T13:30:51.833Z)
Latitude
0.00001°
Longitude
125.87999°
Altitude
365.348 km
Speed
7.694 km/s
True Right ascension
12h 48m 07s
True Declination
0° 00' 00"
Sunlit
Object was in full shadow at epoch
Visualization orbit readout
Latitude
Unknown
Longitude
Unknown
Altitude
Unknown
Speed
Unknown
Apparent Right ascension
Unknown
Apparent Declination
Unknown
Sunlit
N/A
Visualization observer readout
Local Sidereal Time
08:36:23
Azimuth
Unknown
Elevation
Unknown
Doppler factor
Unknown
Orbital elements
Apogee altitude
375.199 km
Perigee altitude
364.571 km
Semi-major axis
6,748.022 km
Eccentricity
0.00079
Inclination
53.04°
RAAN
192.0321°
Arg. of periapsis
346.1635°
True anomaly
13.93802°
Mean anomaly
13.9163°
Eccentric anomaly
13.92716°
Mean motion
3.91542 °/min
Orbital period
91.94 mins
BSTAR
0.00046749
Loading maneuver chart data...
Computing Atmospheric mass density...

Documentation

Showing up to 5 results
|